User: anonymous   Login
Location: Unspecified
(0.0000°N, 0.0000°E)
Time: 08:52:09
(UTC+00:00)
Language:

GONETS M 12 (M22) - Orbit

View from above orbital plane
View from above orbital plane
View from above satellite
View from above satellite

Ground track
Ground track

The orbit data is extracted from the following two-line orbital elements,

1 40553U 15020B   24113.88942237  .00000054  00000-0  31864-3 0  9993
2 40553  82.4895 161.1824 0013525 258.0598 101.8965 12.42878340411174
Epoch (UTC): 22 April 2024 21:20:46
Eccentricity: 0.0013525
inclination: 82.4895°
perigee height: 1484 km
apogee height: 1505 km
right ascension of ascending node: 161.1824°
argument of perigee: 258.0598°
revolutions per day: 12.42878340
mean anomaly at epoch: 101.8965°
orbit number at epoch: 41117

The dashed part of the orbit path shows where the satellite is in the earth's shadow,  

DLR